TimeEST,TemperatureF,Dew PointF,Humidity,Sea Level PressureIn,VisibilityMPH,Wind Direction,Wind SpeedMPH,Gust SpeedMPH,PrecipitationIn,Events,Conditions,WindDirDegrees,DateUTC
12:54 AM,19.9,10.0,65,30.51,10.0,South,6.9,-,N/A,,Partly Cloudy,180,2013-11-25 05:54:00
1:54 AM,19.9,10.0,65,30.47,10.0,South,6.9,-,N/A,,Mostly Cloudy,170,2013-11-25 06:54:00
2:54 AM,21.0,10.9,65,30.45,10.0,South,8.1,-,N/A,,Overcast,170,2013-11-25 07:54:00
3:54 AM,21.9,12.0,66,30.44,10.0,South,8.1,-,N/A,,Overcast,180,2013-11-25 08:54:00
4:54 AM,23.0,12.0,63,30.42,10.0,South,8.1,-,N/A,,Overcast,170,2013-11-25 09:54:00
5:54 AM,23.0,12.0,63,30.40,10.0,South,9.2,-,N/A,,Overcast,170,2013-11-25 10:54:00
6:54 AM,23.0,12.0,63,30.38,10.0,South,9.2,-,N/A,,Mostly Cloudy,170,2013-11-25 11:54:00
7:54 AM,23.0,12.0,63,30.38,10.0,South,6.9,-,N/A,,Mostly Cloudy,190,2013-11-25 12:54:00
8:54 AM,24.1,12.0,60,30.38,10.0,SSW,9.2,-,N/A,,Mostly Cloudy,200,2013-11-25 13:54:00
9:54 AM,25.0,12.0,58,30.35,10.0,South,10.4,-,N/A,,Overcast,180,2013-11-25 14:54:00
10:54 AM,28.0,12.0,51,30.33,10.0,SSW,10.4,-,N/A,,Overcast,210,2013-11-25 15:54:00
11:54 AM,30.0,12.0,47,30.29,10.0,SW,11.5,-,N/A,,Overcast,220,2013-11-25 16:54:00
12:54 PM,30.9,12.0,46,30.27,10.0,SW,11.5,-,N/A,,Overcast,220,2013-11-25 17:54:00
1:54 PM,32.0,12.0,44,30.25,10.0,SW,15.0,-,N/A,,Overcast,220,2013-11-25 18:54:00
2:54 PM,33.1,12.9,43,30.23,10.0,SSW,8.1,-,N/A,,Overcast,210,2013-11-25 19:54:00
3:54 PM,33.1,12.9,43,30.23,10.0,SSW,9.2,-,N/A,,Overcast,210,2013-11-25 20:54:00
4:54 PM,33.1,14.0,46,30.25,10.0,SSW,11.5,-,N/A,,Overcast,210,2013-11-25 21:54:00
5:54 PM,32.0,15.1,50,30.23,10.0,SSW,12.7,-,N/A,,Overcast,200,2013-11-25 22:54:00
6:54 PM,32.0,16.0,52,30.22,10.0,SSW,9.2,-,N/A,,Overcast,210,2013-11-25 23:54:00
7:54 PM,33.1,17.1,52,30.24,10.0,SSW,11.5,-,N/A,,Overcast,210,2013-11-26 00:54:00
8:54 PM,33.1,17.1,52,30.22,10.0,SW,15.0,-,N/A,,Overcast,230,2013-11-26 01:54:00
9:54 PM,32.0,18.0,56,30.20,10.0,SSW,8.1,-,N/A,,Overcast,200,2013-11-26 02:54:00
10:54 PM,32.0,19.0,59,30.18,10.0,SSW,8.1,-,N/A,,Overcast,210,2013-11-26 03:54:00
11:54 PM,32.0,21.0,64,30.19,10.0,SW,4.6,-,N/A,,Overcast,220,2013-11-26 04:54:00